Flag for Switzerland Weather past 2 weeks in Aarau, Aargau, Switzerland

Now
58 °F

Cool.


Feels Like: 58 °F
Forecast: 54 / 69 °F
Wind: 1 mph from Southwest

Location: Wynau

Current Time: May 4, 2015 at 5:01:59 AM

Latest Report: May 4, 2015 at 4:00 AM


Visibility: N/A

Pressure: 29.87 "Hg

Humidity: 99%

Dew point: 58 °F

Location of AarauLocation

Historic Weather in Aarau — Graph

°F

Aarau temperature yesterday

Maximum temperature yesterday: 65 °F (at 6:00 PM)
Minimum temperature yesterday: 51 °F (at 12:00 AM)
Average temperature yesterday: 57 °F

Past Weeks' High & Low Weather Summary

 TemperatureHumidityPressure
High72 °F (Apr 22, 4:00 PM)100% (Apr 27, 6:00 AM)30.38 "Hg (Apr 27, 6:00 AM)
Low34 °F (Apr 20, 7:00 AM)18% (Apr 22, 6:00 PM)29.44 "Hg (Apr 27, 4:00 PM)
Average53 °F73%29.97 "Hg
* Reported Apr 19 3:00 AM — May 4 3:00 AM, Aarau, Weather by CustomWeather, © 2015

Note: Actual official high and low records may vary slightly from our data, if they occured in-between our weather recording intervals... More about our weather records

Advertising

Aarau weather history for previous 24 hours

 ConditionsComfort  
Time TempWeatherWind HumidityBarometerVisibility
3:00 AM
Mon, May 4
59 °FCool.2 mph98%29.88 "HgN/A
2:00 AM58 °FCool.2 mph99%29.87 "HgN/A
1:00 AM59 °FCool.2 mph98%29.86 "HgN/A
12:00 AM60 °FCool.3 mph98%29.85 "HgN/A
11:00 PM
Sun, May 3
60 °FCool.3 mph100%29.85 "HgN/A
10:00 PM62 °FCool.3 mph88%29.81 "HgN/A
9:00 PM62 °FMild.7 mph87%29.78 "HgN/A
8:00 PM63 °FMild.7 mph87%29.76 "HgN/A
7:00 PM64 °FMild.6 mph87%29.76 "HgN/A
6:00 PM65 °FMild.9 mph81%29.76 "HgN/A
5:00 PM63 °FMild.7 mph87%29.77 "HgN/A
4:00 PM62 °FCool.5 mph92%29.78 "HgN/A
3:00 PM61 °FCool.5 mph93%29.80 "HgN/A
2:00 PM60 °FCool.5 mph89%29.80 "HgN/A
1:00 PM58 °FCool.6 mph94%29.82 "HgN/A
12:00 PM58 °FCool.6 mph95%29.81 "HgN/A
11:00 AM56 °FCool.6 mph96%29.82 "HgN/A
10:00 AM56 °FCool.6 mph95%29.82 "HgN/A
9:00 AM55 °FCool.6 mph96%29.81 "HgN/A
8:00 AM54 °FCool.7 mph96%29.82 "HgN/A
7:00 AM53 °FCool.3 mph97%29.81 "HgN/A
6:00 AM53 °FCool.5 mph97%29.81 "HgN/A
5:00 AM53 °FCool.7 mph96%29.81 "HgN/A
Weather by CustomWeather, © 2015

See weather overviewHow to use our weather pages